COSMOS 1275 DEB, 20087

Orbit data source: Space-Track

COSMOS 1275 DEB, 20087 is space debris in LEO originally from a launch on Thu, 04 Jun 1981 UTC launched from the Plesetsk Missile And Space Complex (PKMTR). Debris objects in space refer to the collection of defunct objects orbiting the Earth. Examples of debris include non-operational satellites, rocket bodies, and fragments generated from explosions, collisions, or faulty payload assembly.

Loading next visibility...
Identifier
20087, 1981-053MJ
Orbit
LEO
Country
Flag of CISCIS
Related business
Manufacturer
Unknown
Mission
Spacecraft
Bus & Motor
Unknown
Mass
Unknown
Launch date (UTC)
1981-06-04 (44 years ago)
Launch vehicle
Unknown
Launch site
Plesetsk Missile And Space Complex (PKMTR)
Object type
Payload
Rocket body
Debris
Shape & HBR
Unknown shape, 0.1 m
Radar Cross Section
Small (<0.1 m²)

Expand to show TLE details & history
Last TLE update: 18 hours ago

TLE from 18 hours ago
0 COSMOS 1275 DEB
1 20087U 81053MJ  25290.50537531  .00001759  00000-0  16071-2 0  9990
2 20087  82.9893 316.6274 0106081  82.9663  70.1999 13.80099156821038
Epoch: 2025-10-17T12:07Z
TLE epoch observation values (Epoch: 2025-10-17T12:07:44.426Z)
Latitude
25.5097°
Longitude
-74.90401°
Altitude
940.977 km
Speed
7.396 km/s
True Right ascension
08h 53m 07s
True Declination
25° 22' 47"
Sunlit
Object was in daylight at epoch
Visualization orbit readout
Latitude
Unknown
Longitude
Unknown
Altitude
Unknown
Speed
Unknown
Apparent Right ascension
Unknown
Apparent Declination
Unknown
Sunlit
N/A
Visualization observer readout
Local Sidereal Time
00:37:31
Azimuth
Unknown
Elevation
Unknown
Doppler factor
Unknown
Orbital elements
Apogee altitude
1,038.525 km
Perigee altitude
882.824 km
Semi-major axis
7,338.812 km
Eccentricity
0.01061
Inclination
82.9893°
RAAN
316.6274°
Arg. of periapsis
82.9663°
True anomaly
71.34872°
Mean anomaly
70.1999°
Eccentric anomaly
70.7738°
Mean motion
3.45227 °/min
Orbital period
104.28 mins
BSTAR
0.0016071
Loading maneuver chart data...
Computing Atmospheric mass density...

Documentation

Showing up to 5 results
|